This is the latest recevied weather packets stored in our database for station/object KD1KE. If no packets are shown the sender has not sent any weather packets the latest 10 day(s).
| Time | Temp. | Humidity | Pressure | Rain* | Wind** | Luminosity | Snow |
|---|---|---|---|---|---|---|---|
| 1777927894 | 17.22° C | 58% | 1004.3 hPa | 0 mm | - | - | - |
| 1777927563 | 16.67° C | 59% | 1004.2 hPa | 0 mm | - | - | - |
| 1777927353 | 16.67° C | 60% | 1004.2 hPa | 0 mm | - | - | - |
| 1777926903 | 16.67° C | 62% | 1004.3 hPa | 0 mm | - | - | - |
| 1777926813 | 16.67° C | 62% | 1004.4 hPa | 0 mm | - | - | - |
| 1777926274 | 16.67° C | 62% | 1004.3 hPa | 0 mm | - | - | - |
| 1777926243 | 16.67° C | 62% | 1004.3 hPa | 0 mm | - | - | - |
| 1777925584 | 16.67° C | 60% | 1004.4 hPa | 0 mm | - | - | - |
| 1777925191 | 16.67° C | 61% | 1004.2 hPa | 0 mm | - | - | - |
| 1777924924 | 16.67° C | 62% | 1004.2 hPa | 0 mm | - | - | - |
| 1777924653 | 16.67° C | 62% | 1004 hPa | 0 mm | - | - | - |
| 1777924263 | 16.67° C | 64% | 1004.2 hPa | 0 mm | - | - | - |
| 1777924113 | 16.67° C | 64% | 1004.2 hPa | 0 mm | - | - | - |
| 1777923603 | 16.11° C | 68% | 1004.2 hPa | 0 mm | - | - | - |
| 1777923573 | 16.11° C | 66% | 1004.2 hPa | 0 mm | - | - | - |
| 1777923032 | 15.56° C | 69% | 1004.3 hPa | 0 mm | - | - | - |
| 1777922944 | 15.56° C | 70% | 1004.3 hPa | 0 mm | - | - | - |
| 1777922492 | 15° C | 71% | 1004.4 hPa | 0 mm | - | - | - |
| 1777922283 | 15° C | 72% | 1004.5 hPa | 0 mm | - | - | - |
| 1777921953 | 15.56° C | 72% | 1004.5 hPa | 0 mm | - | - | - |
| 1777921623 | 15° C | 74% | 1004.4 hPa | 0 mm | - | - | - |
| 1777921413 | 14.44° C | 74% | 1004.4 hPa | 0 mm | - | - | - |
| 1777920963 | 14.44° C | 78% | 1004.4 hPa | 0 mm | - | - | - |
| 1777920873 | 13.89° C | 79% | 1004.4 hPa | 0 mm | - | - | - |
| 1777920337 | 12.78° C | 82% | 1004.4 hPa | 0 mm | - | - | - |
* Rain latest hour (hover to see other rain measurements)
** Current wind speed in m/s (hover to see current wind gust speed)